Flag for U.S.A. Weather past 2 weeks in Dover, Delaware, U.S.A.

Now
79 °F

Sunny.


Feels Like: 81 °F
Forecast: 71 / 86 °F
Wind: 12 mph from Southwest

Location: Dover Air Force Base

Current Time: Jul 1, 2015 at 11:47:55 AM

Latest Report: Jul 1, 2015 at 10:58 AM


Visibility: 10 mi

Pressure: 29.85 "Hg

Humidity: 67%

Dew point: 67 °F

Location of DoverLocation

Historic Weather in Dover — Graph

°F

Dover temperature yesterday

Maximum temperature yesterday: 86 °F (at 1:58 PM)
Minimum temperature yesterday: 66 °F (at 3:58 AM)
Average temperature yesterday: 76 °F

Past Weeks' High & Low Weather Summary

 TemperatureHumidityPressure
High94 °F (Jun 23, 3:58 PM)100% (Jun 17, 3:58 AM)30.13 "Hg (Jun 17, 3:58 AM)
Low61 °F (Jun 29, 5:58 AM)49% (Jun 22, 3:58 PM)29.62 "Hg (Jun 28, 2:59 AM)
Average75 °F82%29.92 "Hg
* Reported Jun 16 10:58 AM — Jul 1 10:58 AM, Dover, Weather by CustomWeather, © 2015

Note: Actual official high and low records may vary slightly from our data, if they occured in-between our weather recording intervals... More about our weather records

Advertising

Dover weather history for previous 24 hours

 ConditionsComfort  
Time TempWeatherWind HumidityBarometerVisibility
10:58 AM
Wed, Jul 1
79 °FSunny.12 mph67%29.85 "Hg10 mi
9:58 AM76 °FSunny.7 mph77%29.84 "Hg9 mi
8:58 AM73 °FPassing clouds.10 mph96%29.84 "Hg10 mi
7:58 AM70 °FSunny.12 mph100%29.83 "Hg10 mi
6:58 AM67 °FSunny.9 mph100%29.83 "Hg10 mi
5:58 AM68 °FPassing clouds.7 mph100%29.81 "Hg10 mi
4:58 AM69 °FLight rain. Passing clouds.5 mph95%29.78 "Hg10 mi
3:58 AM71 °FPassing clouds.14 mph85%29.81 "Hg10 mi
2:59 AM72 °FPassing clouds.12 mph94%29.79 "Hg10 mi
2:58 AM72 °FPassing clouds.13 mph93%29.81 "Hg10 mi
1:58 AM76 °FPassing clouds.20 mph85%29.79 "Hg10 mi
12:58 AM75 °FClear.8 mph100%29.79 "Hg10 mi
11:58 PM
Tue, Jun 30
74 °FClear.8 mph100%29.82 "Hg10 mi
10:58 PM74 °FClear.6 mph100%29.82 "Hg10 mi
9:58 PM74 °FClear.5 mph93%29.84 "Hg10 mi
8:58 PM76 °FSunny.8 mph81%29.82 "Hg10 mi
7:58 PM80 °FSunny.10 mph75%29.82 "Hg10 mi
6:58 PM82 °FScattered clouds.14 mph73%29.82 "Hg10 mi
5:59 PM82 °FPassing clouds.17 mph74%29.81 "Hg10 mi
4:58 PM84 °FScattered clouds.16 mph67%29.81 "Hg10 mi
3:58 PM83 °FScattered clouds.17 mph68%29.83 "Hg10 mi
2:58 PM85 °FPassing clouds.16 mph64%29.86 "Hg10 mi
1:58 PM86 °FPassing clouds.17 mph60%29.88 "Hg10 mi
12:58 PM85 °FScattered clouds.15 mph58%29.90 "Hg10 mi
11:58 AM84 °FPassing clouds.17 mph59%29.92 "Hg10 mi
Weather by CustomWeather, © 2015

See weather overviewHow to use our weather pages